Location: Peterborough
(44.3091°N, 78.3197°W)
Time: 16:53:41
(UTC-04:00)

Transit 2A Rocket - Pass Details

Date: 25 March 2023
Orbit: 584 x 914 km, 66.7° (Epoch: 04 June)

Event Time Altitude Azimuth Distance (km) Brightness Sun altitude
Rises 23:03:18 0° 310° (NW) 3,549 9.5 -34.6°
Reaches altitude 10° 23:07:23 10° 284° (WNW) 2,576 8.3 -35.1°
Maximum altitude 23:09:53 13° 260° (W) 2,349 7.8 -35.4°
Enters shadow 23:11:08 12° 246° (WSW) 2,385 7.7 -35.5°
Drops below altitude 10° 23:12:20 10° 235° (SW) 2,512 - -35.7°
Sets 23:16:14 0° 208° (SSW) 3,379 - -36.1°
